| time (UTC) | temp C | wind direction | speed KPH | gust KPH | rain 1hr cm | rain 24hr cm | rain mn cm | humidity % | barometer mb |
| 20260504050553 | 8 | 212 | 4.8 | 8.0 | 0.00 | 0.00 | 0.00 | 52 | 1012.4 |
| 20260504045552 | 8 | 203 | 1.6 | 11.3 | 0.00 | 0.00 | 0.00 | 52 | 1012.2 |
| 20260504045052 | 8 | 206 | 3.2 | 11.3 | 0.00 | 0.00 | 0.00 | 51 | 1012.2 |
| 20260504044554 | 8 | 202 | 3.2 | 11.3 | 0.00 | 0.00 | 0.00 | 51 | 1012.2 |
| 20260504044053 | 8 | 216 | 4.8 | 12.9 | 0.00 | 0.00 | 0.00 | 51 | 1012.2 |
| 20260504043552 | 8 | 225 | 6.4 | 12.9 | 0.00 | 0.00 | 0.00 | 51 | 1012.2 |
| 20260504043058 | 8 | 216 | 3.2 | 9.7 | 0.00 | 0.00 | 0.00 | 51 | 1012.2 |
| 20260504042556 | 8 | 209 | 3.2 | 11.3 | 0.00 | 0.00 | 0.00 | 51 | 1012.1 |
| 20260504042054 | 8 | 221 | 6.4 | 11.3 | 0.00 | 0.00 | 0.00 | 50 | 1012.2 |
| 20260504041554 | 8 | 211 | 1.6 | 8.0 | 0.00 | 0.00 | 0.00 | 50 | 1012.1 |
| 20260504041054 | 8 | 219 | 1.6 | 9.7 | 0.00 | 0.00 | 0.00 | 50 | 1011.9 |
| 20260504040554 | 8 | 220 | 3.2 | 11.3 | 0.00 | 0.00 | 0.00 | 50 | 1011.8 |
| 20260504040056 | 8 | 183 | 6.4 | 11.3 | 0.00 | 0.00 | 0.00 | 50 | 1011.9 |
| 20260504035552 | 8 | 214 | 3.2 | 11.3 | 0.00 | 0.00 | 0.00 | 50 | 1011.7 |
| 20260504035051 | 8 | 213 | 4.8 | 11.3 | 0.00 | 0.00 | 0.00 | 49 | 1011.7 |
| 20260504034554 | 8 | 214 | 4.8 | 11.3 | 0.00 | 0.00 | 0.00 | 49 | 1011.7 |
| 20260504034050 | 8 | 199 | 1.6 | 8.0 | 0.00 | 0.00 | 0.00 | 48 | 1011.7 |
| 20260504033553 | 9 | 192 | 0.0 | 9.7 | 0.00 | 0.00 | 0.00 | 48 | 1011.6 |
| 20260504033059 | 9 | 218 | 3.2 | 11.3 | 0.00 | 0.00 | 0.00 | 48 | 1011.7 |
| 20260504032553 | 9 | 226 | 4.8 | 11.3 | 0.00 | 0.00 | 0.00 | 47 | 1011.6 |
| 20260504032053 | 10 | 215 | 1.6 | 8.0 | 0.00 | 0.00 | 0.00 | 46 | 1011.6 |
| 20260504031553 | 10 | 251 | 1.6 | 4.8 | 0.00 | 0.00 | 0.00 | 45 | 1011.5 |
| 20260504031053 | 10 | 244 | 1.6 | 4.8 | 0.00 | 0.00 | 0.00 | 45 | 1011.5 |
| 20260504030553 | 10 | 231 | 1.6 | 4.8 | 0.00 | 0.00 | 0.00 | 45 | 1011.5 |
| 20260504030055 | 10 | 235 | 1.6 | 6.4 | 0.00 | 0.00 | 0.00 | 45 | 1011.5 |
| 20260504025553 | 10 | 210 | 1.6 | 6.4 | 0.00 | 0.00 | 0.00 | 45 | 1011.5 |
| 20260504025053 | 10 | 231 | 1.6 | 6.4 | 0.00 | 0.00 | 0.00 | 45 | 1011.5 |
| 20260504024554 | 10 | 213 | 1.6 | 6.4 | 0.00 | 0.00 | 0.00 | 45 | 1011.6 |
| 20260504024053 | 10 | 252 | 1.6 | 6.4 | 0.00 | 0.00 | 0.00 | 45 | 1011.5 |
| 20260504023551 | 10 | 291 | 1.6 | 11.3 | 0.00 | 0.00 | 0.00 | 45 | 1011.5 |
| 20260504023057 | 10 | 247 | 1.6 | 11.3 | 0.00 | 0.00 | 0.00 | 45 | 1011.6 |
| 20260504022551 | 10 | 228 | 1.6 | 8.0 | 0.00 | 0.00 | 0.00 | 45 | 1011.6 |
| 20260504022051 | 10 | 222 | 3.2 | 8.0 | 0.00 | 0.00 | 0.00 | 45 | 1011.6 |
| 20260504021600 | 10 | 212 | 1.6 | 4.8 | 0.00 | 0.00 | 0.00 | 44 | 1011.5 |
| 20260504021050 | 10 | 214 | 1.6 | 6.4 | 0.00 | 0.00 | 0.00 | 44 | 1011.6 |
| 20260504020550 | 10 | 227 | 1.6 | 6.4 | 0.00 | 0.00 | 0.00 | 43 | 1011.5 |
| 20260504020137 | 10 | 229 | 1.6 | 8.0 | 0.00 | 0.00 | 0.00 | 44 | 1011.5 |
| 20260504015553 | 10 | 232 | 3.2 | 8.0 | 0.00 | 0.00 | 0.00 | 44 | 1011.4 |
| 20260504015053 | 10 | 227 | 1.6 | 6.4 | 0.00 | 0.00 | 0.00 | 44 | 1011.5 |
| 20260504014604 | 10 | 233 | 1.6 | 6.4 | 0.00 | 0.00 | 0.00 | 43 | 1011.5 |
| 20260504014050 | 10 | 222 | 1.6 | 4.8 | 0.00 | 0.00 | 0.00 | 43 | 1011.4 |
| 20260504013551 | 10 | 230 | 1.6 | 4.8 | 0.00 | 0.00 | 0.00 | 42 | 1011.4 |
| 20260504013117 | 10 | 241 | 1.6 | 4.8 | 0.00 | 0.00 | 0.00 | 42 | 1011.4 |
| 20260504012553 | 11 | 218 | 1.6 | 4.8 | 0.00 | 0.00 | 0.00 | 43 | 1011.3 |
| 20260504012055 | 11 | 224 | 1.6 | 4.8 | 0.00 | 0.00 | 0.00 | 41 | 1011.4 |
| 20260504011600 | 11 | 241 | 0.0 | 4.8 | 0.00 | 0.00 | 0.00 | 41 | 1011.4 |
| 20260504011052 | 11 | 218 | 0.0 | 6.4 | 0.00 | 0.00 | 0.00 | 41 | 1011.3 |
| 20260504010552 | 11 | 236 | 1.6 | 6.4 | 0.00 | 0.00 | 0.00 | 40 | 1011.2 |
| 20260504010054 | 11 | 218 | 1.6 | 4.8 | 0.00 | 0.00 | 0.00 | 40 | 1011.2 |
| 20260504005552 | 11 | 229 | 1.6 | 4.8 | 0.00 | 0.00 | 0.00 | 39 | 1011.1 |
| 20260504005052 | 11 | 0 | 1.6 | 4.8 | 0.00 | 0.00 | 0.00 | 40 | 1011.0 |
| 20260504004640 | 11 | 231 | 1.6 | 4.8 | 0.00 | 0.00 | 0.00 | 39 | 1010.9 |
| 20260504004053 | 11 | 0 | 1.6 | 4.8 | 0.00 | 0.00 | 0.00 | 39 | 1010.9 |
| 20260504003552 | 12 | 245 | 1.6 | 4.8 | 0.00 | 0.00 | 0.00 | 38 | 1010.9 |
| 20260504003103 | 12 | 283 | 0.0 | 3.2 | 0.00 | 0.00 | 0.00 | 38 | 1010.8 |
| 20260504002552 | 12 | 275 | 0.0 | 4.8 | 0.00 | 0.00 | 0.00 | 38 | 1010.7 |
| 20260504002052 | 12 | 0 | 0.0 | 4.8 | 0.00 | 0.00 | 0.00 | 38 | 1010.7 |
| 20260504001621 | 12 | 0 | 0.0 | 4.8 | 0.00 | 0.00 | 0.00 | 37 | 1010.6 |
| 20260504001052 | 12 | 291 | 1.6 | 8.0 | 0.00 | 0.00 | 0.00 | 37 | 1010.6 |
| 20260504000552 | 12 | 274 | 0.0 | 11.3 | 0.00 | 0.00 | 0.00 | 37 | 1010.6 |
| 20260504000104 | 12 | 0 | 1.6 | 12.9 | 0.00 | 0.00 | 0.00 | 36 | 1010.5 |
| 20260503235554 | 12 | 256 | 3.2 | 12.9 | 0.00 | 0.00 | 0.00 | 36 | 1010.4 |
| 20260503235054 | 13 | 278 | 1.6 | 12.9 | 0.00 | 0.00 | 0.00 | 36 | 1010.4 |
| 20260503234605 | 13 | 279 | 1.6 | 12.9 | 0.00 | 0.00 | 0.00 | 35 | 1010.3 |
| 20260503234053 | 13 | 240 | 3.2 | 12.9 | 0.00 | 0.00 | 0.00 | 35 | 1010.3 |
| 20260503233553 | 13 | 274 | 1.6 | 12.9 | 0.00 | 0.00 | 0.00 | 35 | 1010.3 |
| 20260503233100 | 13 | 293 | 3.2 | 12.9 | 0.00 | 0.00 | 0.00 | 35 | 1010.2 |
| 20260503232552 | 13 | 245 | 3.2 | 12.9 | 0.00 | 0.00 | 0.00 | 34 | 1010.1 |
| 20260503232052 | 13 | 256 | 0.0 | 12.9 | 0.00 | 0.00 | 0.00 | 35 | 1010.1 |
| 20260503231556 | 13 | 272 | 1.6 | 6.4 | 0.00 | 0.00 | 0.00 | 34 | 1010.2 |
| 20260503231108 | 14 | 233 | 1.6 | 14.5 | 0.00 | 0.00 | 0.00 | 34 | 1010.1 |
| 20260503230555 | 14 | 236 | 3.2 | 17.7 | 0.00 | 0.00 | 0.00 | 33 | 1010.1 |
| 20260503230110 | 14 | 25 | 3.2 | 20.9 | 0.00 | 0.00 | 0.00 | 32 | 1010.1 |
| 20260503225552 | 14 | 317 | 9.7 | 20.9 | 0.00 | 0.00 | 0.00 | 32 | 1010.0 |
| 20260503225052 | 14 | 0 | 6.4 | 20.9 | 0.00 | 0.00 | 0.00 | 32 | 1010.0 |
| 20260503224606 | 14 | 335 | 3.2 | 16.1 | 0.00 | 0.00 | 0.00 | 33 | 1010.0 |
| 20260503224052 | 14 | 224 | 3.2 | 14.5 | 0.00 | 0.00 | 0.00 | 33 | 1010.0 |
| 20260503223552 | 14 | 297 | 3.2 | 16.1 | 0.00 | 0.00 | 0.00 | 33 | 1010.0 |
| 20260503223058 | 14 | 240 | 4.8 | 16.1 | 0.00 | 0.00 | 0.00 | 31 | 1010.1 |
| 20260503222552 | 14 | 312 | 3.2 | 16.1 | 0.00 | 0.00 | 0.00 | 31 | 1010.1 |
| 20260503222051 | 14 | 358 | 3.2 | 16.1 | 0.00 | 0.00 | 0.00 | 32 | 1010.1 |
| 20260503221603 | 14 | 323 | 3.2 | 16.1 | 0.00 | 0.00 | 0.00 | 32 | 1010.0 |
| 20260503221051 | 14 | 271 | 3.2 | 20.9 | 0.00 | 0.00 | 0.00 | 31 | 1010.0 |
| 20260503220553 | 15 | 256 | 3.2 | 20.9 | 0.00 | 0.00 | 0.00 | 32 | 1010.0 |
| 20260503220058 | 14 | 0 | 4.8 | 16.1 | 0.00 | 0.00 | 0.00 | 31 | 1010.1 |
| 20260503215552 | 14 | 293 | 3.2 | 16.1 | 0.00 | 0.00 | 0.00 | 30 | 1010.1 |
| 20260503215052 | 14 | 301 | 3.2 | 19.3 | 0.00 | 0.00 | 0.00 | 31 | 1010.0 |
| 20260503214600 | 14 | 234 | 4.8 | 22.5 | 0.00 | 0.00 | 0.00 | 31 | 1010.0 |
| 20260503214052 | 14 | 256 | 6.4 | 22.5 | 0.00 | 0.00 | 0.00 | 29 | 1009.9 |
| 20260503213555 | 15 | 267 | 3.2 | 22.5 | 0.00 | 0.00 | 0.00 | 29 | 1009.9 |
| 20260503213053 | 15 | 308 | 3.2 | 22.5 | 0.00 | 0.00 | 0.00 | 31 | 1009.8 |
| 20260503212552 | 15 | 341 | 6.4 | 22.5 | 0.00 | 0.00 | 0.00 | 29 | 1009.8 |
| 20260503212052 | 15 | 260 | 3.2 | 19.3 | 0.00 | 0.00 | 0.00 | 30 | 1009.8 |
| 20260503211559 | 15 | 258 | 4.8 | 19.3 | 0.00 | 0.00 | 0.00 | 29 | 1009.8 |
| 20260503211054 | 15 | 285 | 8.0 | 20.9 | 0.00 | 0.00 | 0.00 | 29 | 1009.8 |
| 20260503210552 | 15 | 276 | 6.4 | 24.1 | 0.00 | 0.00 | 0.00 | 29 | 1009.7 |
| 20260503210057 | 15 | 245 | 8.0 | 24.1 | 0.00 | 0.00 | 0.00 | 27 | 1009.9 |
| 20260503205552 | 15 | 208 | 6.4 | 24.1 | 0.00 | 0.00 | 0.00 | 28 | 1009.8 |
| 20260503205052 | 15 | 221 | 3.2 | 19.3 | 0.00 | 0.00 | 0.00 | 29 | 1009.8 |
| 20260503204554 | 15 | 0 | 4.8 | 30.6 | 0.00 | 0.00 | 0.00 | 31 | 1009.9 |
| 20260503204053 | 15 | 260 | 6.4 | 30.6 | 0.00 | 0.00 | 0.00 | 29 | 1009.9 |
| 20260503203552 | 14 | 246 | 9.7 | 30.6 | 0.00 | 0.00 | 0.00 | 28 | 1009.8 |
| 20260503203112 | 14 | 254 | 12.9 | 27.4 | 0.00 | 0.00 | 0.00 | 27 | 1009.9 |
| 20260503202553 | 14 | 260 | 8.0 | 20.9 | 0.00 | 0.00 | 0.00 | 29 | 1010.0 |
| 20260503202053 | 14 | 296 | 8.0 | 20.9 | 0.00 | 0.00 | 0.00 | 30 | 1010.0 |
| 20260503201555 | 15 | 314 | 6.4 | 22.5 | 0.00 | 0.00 | 0.00 | 29 | 1010.0 |
| 20260503201052 | 14 | 303 | 4.8 | 27.4 | 0.00 | 0.00 | 0.00 | 29 | 1010.0 |
| 20260503200552 | 15 | 333 | 8.0 | 29.0 | 0.00 | 0.00 | 0.00 | 29 | 1010.1 |
| 20260503200052 | 15 | 214 | 6.4 | 29.0 | 0.00 | 0.00 | 0.00 | 31 | 1010.1 |
| 20260503195552 | 15 | 256 | 9.7 | 29.0 | 0.00 | 0.00 | 0.00 | 31 | 1010.3 |
| 20260503195052 | 14 | 266 | 6.4 | 22.5 | 0.00 | 0.00 | 0.00 | 32 | 1010.2 |
| 20260503194557 | 14 | 285 | 6.4 | 30.6 | 0.00 | 0.00 | 0.00 | 31 | 1010.3 |
| 20260503194052 | 14 | 267 | 8.0 | 30.6 | 0.00 | 0.00 | 0.00 | 28 | 1010.4 |
| 20260503193552 | 14 | 314 | 9.7 | 30.6 | 0.00 | 0.00 | 0.00 | 31 | 1010.3 |
| 20260503193055 | 14 | 276 | 9.7 | 25.7 | 0.00 | 0.00 | 0.00 | 29 | 1010.4 |
| 20260503192551 | 14 | 272 | 6.4 | 22.5 | 0.00 | 0.00 | 0.00 | 30 | 1010.5 |
| 20260503192051 | 14 | 335 | 4.8 | 22.5 | 0.00 | 0.00 | 0.00 | 30 | 1010.6 |
| 20260503191556 | 13 | 329 | 4.8 | 30.6 | 0.00 | 0.00 | 0.00 | 32 | 1010.8 |
| 20260503191053 | 13 | 326 | 9.7 | 30.6 | 0.00 | 0.00 | 0.00 | 30 | 1010.8 |
| 20260503190552 | 14 | 204 | 9.7 | 22.5 | 0.00 | 0.00 | 0.00 | 31 | 1010.7 |
| 20260503190108 | 13 | 289 | 8.0 | 20.9 | 0.00 | 0.00 | 0.00 | 31 | 1010.8 |
| 20260503185552 | 14 | 279 | 4.8 | 20.9 | 0.00 | 0.00 | 0.00 | 31 | 1010.8 |
| 20260503185052 | 13 | 314 | 8.0 | 27.4 | 0.00 | 0.00 | 0.00 | 30 | 1010.9 |
| 20260503184554 | 13 | 262 | 9.7 | 27.4 | 0.00 | 0.00 | 0.00 | 29 | 1010.7 |
| 20260503184052 | 14 | 274 | 8.0 | 22.5 | 0.00 | 0.00 | 0.00 | 32 | 1010.8 |
| 20260503183553 | 14 | 279 | 6.4 | 22.5 | 0.00 | 0.00 | 0.00 | 33 | 1010.9 |
| 20260503183055 | 14 | 225 | 8.0 | 22.5 | 0.00 | 0.00 | 0.00 | 30 | 1010.9 |
| 20260503182552 | 13 | 258 | 8.0 | 22.5 | 0.00 | 0.00 | 0.00 | 32 | 1010.8 |
| 20260503182052 | 13 | 158 | 6.4 | 22.5 | 0.00 | 0.00 | 0.00 | 34 | 1010.9 |
| 20260503181600 | 13 | 305 | 6.4 | 22.5 | 0.00 | 0.00 | 0.00 | 32 | 1010.9 |
| 20260503181052 | 12 | 355 | 6.4 | 22.5 | 0.00 | 0.00 | 0.00 | 33 | 1010.9 |
| 20260503180552 | 12 | 285 | 9.7 | 22.5 | 0.00 | 0.00 | 0.00 | 32 | 1010.9 |
| 20260503180055 | 13 | 262 | 8.0 | 17.7 | 0.00 | 0.00 | 0.00 | 31 | 1010.9 |
| 20260503175552 | 13 | 311 | 4.8 | 27.4 | 0.00 | 0.00 | 0.00 | 33 | 1011.0 |
| 20260503175052 | 13 | 297 | 4.8 | 32.2 | 0.00 | 0.00 | 0.00 | 32 | 1010.9 |
| 20260503174554 | 12 | 238 | 9.7 | 33.8 | 0.00 | 0.00 | 0.00 | 31 | 1011.1 |
| 20260503174052 | 12 | 333 | 9.7 | 33.8 | 0.00 | 0.00 | 0.00 | 32 | 1011.1 |
| 20260503173552 | 12 | 12 | 6.4 | 27.4 | 0.00 | 0.00 | 0.00 | 32 | 1011.0 |
| 20260503173055 | 12 | 20 | 11.3 | 27.4 | 0.00 | 0.00 | 0.00 | 30 | 1011.1 |
| 20260503172552 | 12 | 337 | 8.0 | 30.6 | 0.00 | 0.00 | 0.00 | 31 | 1011.3 |
| 20260503172052 | 12 | 243 | 9.7 | 30.6 | 0.00 | 0.00 | 0.00 | 31 | 1011.2 |
| 20260503171604 | 12 | 334 | 8.0 | 29.0 | 0.00 | 0.00 | 0.00 | 32 | 1011.3 |
| 20260503171052 | 11 | 277 | 8.0 | 29.0 | 0.00 | 0.00 | 0.00 | 34 | 1011.3 |
| 20260503170552 | 11 | 33 | 14.5 | 29.0 | 0.00 | 0.00 | 0.00 | 31 | 1011.4 |
| 20260503150555 | 9 | 317 | 8.0 | 17.7 | 0.00 | 0.00 | 0.00 | 44 | 1012.3 |
| 20260503131053 | 8 | 338 | 11.3 | 29.0 | 0.00 | 0.00 | 0.00 | 51 | 1012.4 |
| 20260503130554 | 8 | 306 | 4.8 | 16.1 | 0.00 | 0.00 | 0.00 | 51 | 1012.4 |
| 20260503110552 | 5 | 316 | 3.2 | 12.9 | 0.00 | 0.00 | 0.00 | 63 | 1012.0 |
| 20260503100108 | 5 | 308 | 9.7 | 19.3 | 0.00 | 0.03 | 0.00 | 61 | 1011.0 |
| 20260503081559 | 5 | 337 | 6.4 | 20.9 | 0.00 | 0.03 | 0.00 | 59 | 1010.2 |
| 20260503081052 | 6 | 9 | 6.4 | 20.9 | 0.00 | 0.03 | 0.00 | 58 | 1010.1 |
| 20260503080552 | 6 | 345 | 4.8 | 17.7 | 0.00 | 0.03 | 0.00 | 58 | 1010.0 |
| 20260503072552 | 6 | 343 | 6.4 | 19.3 | 0.00 | 0.08 | 0.00 | 54 | 1010.0 |
| 20260503072052 | 6 | 300 | 8.0 | 17.7 | 0.00 | 0.08 | 0.00 | 54 | 1010.0 |
| 20260503071601 | 6 | 346 | 6.4 | 22.5 | 0.00 | 0.08 | 0.00 | 54 | 1009.9 |
| 20260503071051 | 6 | 324 | 8.0 | 22.5 | 0.00 | 0.08 | 0.00 | 54 | 1010.1 |
| 20260503070555 | 6 | 343 | 6.4 | 17.7 | 0.00 | 0.08 | 0.00 | 54 | 1010.0 |
| 20260503060116 | 7 | 353 | 4.8 | 12.9 | 0.00 | 0.08 | 0.00 | 54 | 1010.2 |
| 20260503055052 | 7 | 333 | 4.8 | 14.5 | 0.00 | 0.08 | 0.00 | 55 | 1010.2 |
| 20260503054605 | 7 | 2 | 4.8 | 9.7 | 0.00 | 0.08 | 0.00 | 55 | 1010.2 |
| 20260503054054 | 7 | 12 | 4.8 | 11.3 | 0.00 | 0.08 | 0.00 | 55 | 1010.2 |
| 20260503053552 | 7 | 341 | 3.2 | 11.3 | 0.00 | 0.08 | 0.00 | 55 | 1010.3 |